OCN1214 EDDM-LGSK

Flight info

Callsign OCN1214
Flight time N/A
Altitude 29000
Route ROTAX4E/08R ROTAX L603 LATLO DCT OBEDI/N0424F370 DCT KLAGY DCT MAGAM DCT MEDUX UM867 KOGAT DCT ERANA UL737 TSL
Aircraft A20N/M-SDE2E3FGHIRWXY/LB1

Departure

Time N/A
Airport Munich Airport (EDDM)

Arrival

Time 2026-04-09 12:42
Airport Skiathos Island National Airport (LGSK)
Time Latitude Longitude Altitude Speed Heading
2026-04-09 12:02 42.38285 20.62028 37080 ft 521 kts 128°
2026-04-09 12:02 42.33628 20.69571 37098 ft 523 kts 128°
2026-04-09 12:03 42.28982 20.77078 37095 ft 525 kts 129°
2026-04-09 12:03 42.24285 20.84646 37090 ft 526 kts 129°
2026-04-09 12:04 42.19645 20.92103 37059 ft 515 kts 129°
2026-04-09 12:04 42.15015 20.99527 37050 ft 519 kts 129°
2026-04-09 12:05 42.10290 21.06783 37061 ft 520 kts 135°
2026-04-09 12:05 42.05031 21.13461 37048 ft 519 kts 136°
2026-04-09 12:06 41.99795 21.20104 37017 ft 515 kts 137°
2026-04-09 12:06 41.94589 21.26696 36993 ft 514 kts 137°
2026-04-09 12:07 41.89400 21.33253 36988 ft 511 kts 137°
2026-04-09 12:07 41.84234 21.39759 37035 ft 517 kts 137°
2026-04-09 12:08 41.78971 21.46375 37024 ft 519 kts 137°
2026-04-09 12:08 41.73712 21.52973 37027 ft 518 kts 138°
2026-04-09 12:09 41.68443 21.59563 37034 ft 518 kts 137°
2026-04-09 12:09 41.63224 21.66079 37027 ft 516 kts 137°
2026-04-09 12:10 41.57968 21.72626 37024 ft 516 kts 137°
2026-04-09 12:10 41.52710 21.79159 37036 ft 517 kts 137°
2026-04-09 12:11 41.47436 21.85695 37014 ft 518 kts 138°
2026-04-09 12:11 41.42149 21.92234 37019 ft 519 kts 138°
2026-04-09 12:12 41.36885 21.98729 37028 ft 519 kts 138°
2026-04-09 12:12 41.31577 22.05262 37031 ft 520 kts 138°
2026-04-09 12:13 41.26253 22.11801 37036 ft 522 kts 138°
2026-04-09 12:13 41.20676 22.17927 37040 ft 519 kts 151°
2026-04-09 12:14 41.14425 22.22702 37041 ft 519 kts 153°
2026-04-09 12:14 41.08150 22.27337 37049 ft 519 kts 154°
2026-04-09 12:15 41.01822 22.31951 37043 ft 519 kts 154°
2026-04-09 12:15 40.95512 22.36535 36912 ft 515 kts 154°
2026-04-09 12:16 40.92374 22.38809 36535 ft 513 kts 154°
2026-04-09 12:16 40.89245 22.41077 36163 ft 513 kts 154°
2026-04-09 12:16 40.86107 22.43350 35778 ft 516 kts 154°
2026-04-09 12:16 40.82954 22.45632 35404 ft 517 kts 154°
2026-04-09 12:17 40.79794 22.47917 35060 ft 517 kts 154°
2026-04-09 12:17 40.76637 22.50196 34690 ft 518 kts 154°
2026-04-09 12:17 40.73520 22.52444 34318 ft 518 kts 154°
2026-04-09 12:17 40.70360 22.54721 33963 ft 518 kts 154°
2026-04-09 12:18 40.67192 22.57000 33555 ft 520 kts 154°
2026-04-09 12:18 40.64016 22.59281 33149 ft 520 kts 154°
2026-04-09 12:18 40.60836 22.61564 32745 ft 521 kts 154°
2026-04-09 12:18 40.57653 22.63847 32355 ft 522 kts 154°
2026-04-09 12:19 40.54461 22.66133 31964 ft 522 kts 154°
2026-04-09 12:19 40.51270 22.68416 31591 ft 523 kts 154°
2026-04-09 12:19 40.48075 22.70700 31205 ft 524 kts 154°
2026-04-09 12:19 40.44868 22.72989 30830 ft 524 kts 154°
2026-04-09 12:20 40.41665 22.75273 30459 ft 522 kts 154°
2026-04-09 12:20 40.38485 22.77540 30088 ft 519 kts 154°
2026-04-09 12:20 40.35364 22.79762 29690 ft 516 kts 154°
2026-04-09 12:20 40.32224 22.81995 29262 ft 512 kts 154°
2026-04-09 12:21 40.29100 22.84214 28813 ft 509 kts 154°
2026-04-09 12:21 40.26005 22.86410 28396 ft 503 kts 154°
2026-04-09 12:21 40.22941 22.88582 27986 ft 499 kts 154°
2026-04-09 12:21 40.19895 22.90738 27583 ft 496 kts 154°
2026-04-09 12:22 40.16863 22.92882 27181 ft 494 kts 154°
2026-04-09 12:22 40.13847 22.95013 26743 ft 492 kts 154°
2026-04-09 12:22 40.10845 22.97131 26233 ft 489 kts 154°
2026-04-09 12:22 40.07870 22.99229 25731 ft 483 kts 154°
2026-04-09 12:23 40.04927 23.01303 25223 ft 478 kts 154°
2026-04-09 12:23 40.02018 23.03351 24728 ft 472 kts 154°
2026-04-09 12:23 39.99181 23.05346 24263 ft 468 kts 154°
2026-04-09 12:23 39.96314 23.07358 23785 ft 467 kts 154°
2026-04-09 12:24 39.93465 23.09357 23277 ft 464 kts 154°
2026-04-09 12:24 39.90638 23.11339 22750 ft 459 kts 154°
2026-04-09 12:24 39.87845 23.13296 22210 ft 454 kts 154°
2026-04-09 12:24 39.85079 23.15232 21680 ft 450 kts 154°
2026-04-09 12:25 39.82322 23.17158 21159 ft 448 kts 154°
2026-04-09 12:25 39.79593 23.19064 20626 ft 443 kts 154°
2026-04-09 12:25 39.76889 23.20951 20124 ft 438 kts 154°
2026-04-09 12:25 39.74251 23.22791 19635 ft 434 kts 154°
2026-04-09 12:26 39.71595 23.24640 19150 ft 433 kts 154°
2026-04-09 12:26 39.68948 23.26482 18671 ft 430 kts 154°
2026-04-09 12:26 39.66323 23.28307 18189 ft 426 kts 153°
2026-04-09 12:26 39.63728 23.30110 17640 ft 421 kts 153°
2026-04-09 12:27 39.61159 23.31893 17106 ft 417 kts 153°
2026-04-09 12:27 39.58610 23.33660 16586 ft 414 kts 153°
2026-04-09 12:27 39.56073 23.35417 16054 ft 411 kts 153°
2026-04-09 12:27 39.53564 23.37154 15545 ft 407 kts 153°
2026-04-09 12:28 39.51079 23.38873 15046 ft 403 kts 153°
2026-04-09 12:28 39.48614 23.40577 14571 ft 400 kts 153°
2026-04-09 12:28 39.46205 23.42240 14089 ft 396 kts 153°
2026-04-09 12:28 39.43783 23.43912 13598 ft 393 kts 153°
2026-04-09 12:29 39.41385 23.45566 13051 ft 389 kts 153°
2026-04-09 12:29 39.39010 23.47203 12541 ft 386 kts 153°
2026-04-09 12:29 39.36653 23.48827 12037 ft 382 kts 153°
2026-04-09 12:29 39.34319 23.50434 11527 ft 378 kts 153°
2026-04-09 12:30 39.32011 23.52020 11027 ft 374 kts 153°
2026-04-09 12:30 39.29725 23.53591 10533 ft 371 kts 153°
2026-04-09 12:30 39.27452 23.55151 9935 ft 370 kts 154°
2026-04-09 12:30 39.25167 23.56719 9044 ft 375 kts 154°
2026-04-09 12:31 39.22836 23.58319 7988 ft 384 kts 154°
2026-04-09 12:31 39.20480 23.59971 7290 ft 383 kts 149°
2026-04-09 12:31 39.18550 23.62174 7282 ft 362 kts 128°
2026-04-09 12:31 39.17527 23.64989 6942 ft 351 kts 96°
2026-04-09 12:32 39.17878 23.68019 6281 ft 345 kts 59°
2026-04-09 12:32 39.19461 23.70197 5699 ft 331 kts 26°
2026-04-09 12:32 39.21622 23.70854 5138 ft 316 kts 351°
2026-04-09 12:32 39.23532 23.69725 4825 ft 300 kts 315°
2026-04-09 12:33 39.24431 23.67432 4322 ft 287 kts 274°
2026-04-09 12:33 39.23835 23.65060 3656 ft 284 kts 229°
2026-04-09 12:33 39.22218 23.63699 3185 ft 274 kts 207°
2026-04-09 12:33 39.20572 23.62724 3115 ft 247 kts 205°
2026-04-09 12:34 39.19027 23.61949 3002 ft 231 kts 202°
2026-04-09 12:34 39.17542 23.61228 2837 ft 225 kts 206°
2026-04-09 12:34 39.16134 23.60448 2600 ft 220 kts 205°
2026-04-09 12:34 39.14790 23.59716 2627 ft 197 kts 204°
2026-04-09 12:35 39.13579 23.59092 2635 ft 176 kts 206°
2026-04-09 12:35 39.12542 23.58496 2668 ft 158 kts 210°
2026-04-09 12:35 39.11535 23.57862 2741 ft 165 kts 208°
2026-04-09 12:35 39.10494 23.57173 2857 ft 173 kts 211°
2026-04-09 12:36 39.09426 23.56418 2966 ft 177 kts 210°
2026-04-09 12:36 39.08339 23.55642 3033 ft 182 kts 210°
2026-04-09 12:36 39.07249 23.54870 2960 ft 174 kts 209°
2026-04-09 12:36 39.06205 23.54136 2871 ft 170 kts 210°
2026-04-09 12:37 39.05167 23.53404 2552 ft 169 kts 208°
2026-04-09 12:37 39.04169 23.52665 2208 ft 165 kts 217°
2026-04-09 12:37 39.03416 23.51671 2086 ft 148 kts 240°
2026-04-09 12:37 39.03122 23.50439 2033 ft 144 kts 272°
2026-04-09 12:38 39.03368 23.49160 1995 ft 150 kts 302°
2026-04-09 12:38 39.04033 23.48226 2044 ft 139 kts 327°
2026-04-09 12:38 39.04845 23.47583 2052 ft 137 kts 330°
2026-04-09 12:38 39.05675 23.46974 2016 ft 140 kts 338°
2026-04-09 12:39 39.06634 23.46705 2032 ft 145 kts
2026-04-09 12:39 39.07617 23.47028 1993 ft 145 kts 17°
2026-04-09 12:39 39.08252 23.47276 1944 ft 144 kts 18°
2026-04-09 12:39 39.09513 23.47704 1871 ft 144 kts 14°
2026-04-09 12:40 39.10462 23.47991 1716 ft 136 kts 14°
2026-04-09 12:40 39.11392 23.48285 1452 ft 138 kts 13°
2026-04-09 12:40 39.12332 23.48455 1260 ft 128 kts
2026-04-09 12:41 39.14055 23.48746 903 ft 126 kts 14°
2026-04-09 12:41 39.14594 23.48981 740 ft 122 kts 17°
2026-04-09 12:41 39.15409 23.49361 455 ft 129 kts 18°
2026-04-09 12:41 39.16283 23.49743 249 ft 133 kts 15°
2026-04-09 12:42 39.17149 23.50109 33 ft 125 kts 17°
2026-04-09 12:42 39.17868 23.50426 40 ft 33 kts 17°
2026-04-09 12:42 39.17925 23.50386 40 ft 14 kts 284°
2026-04-09 12:42 39.17924 23.50346 43 ft 0 kts 239°
2026-04-09 12:43 39.17869 23.50307 42 ft 19 kts 197°
2026-04-09 12:44 39.17838 23.50294 41 ft 2 kts 199°
2026-04-09 12:44 39.17793 23.50274 41 ft 17 kts 199°
2026-04-09 12:44 39.17674 23.50240 37 ft 14 kts 199°
2026-04-09 12:44 39.17631 23.50186 35 ft 9 kts 270°
2026-04-09 12:45 39.17632 23.50178 34 ft 0 kts 285°